Saint Bonnet de Bellac- Haute Vienne - France
Donnes mto: mercredi, 24/10/2012
Date Horaire Temp. E. Hum. E. P.atmo. Pluie Vent Direction Direction Ensoleilleme Solaire P. de rose Temp au vent Rafales
24/10/2012 00:00 10,1 C 94 % 1019,9 hPa 0,0 mm 0,0 km/h (0 Bft) E-SE 112 0 min 0 W/m 9,2 C 10,1 C 0,0 km/h (0 Bft)
24/10/2012 00:10 10,1 C 94 % 1020,1 hPa 0,0 mm 0,0 km/h (0 Bft) E-SE 112 0 min 0 W/m 9,2 C 10,1 C 0,0 km/h (0 Bft)
24/10/2012 00:20 10,4 C 95 % 1020,2 hPa 0,0 mm 0,0 km/h (0 Bft) E-SE 112 0 min 0 W/m 9,6 C 10,4 C 0,0 km/h (0 Bft)
24/10/2012 00:30 10,9 C 95 % 1020,3 hPa 0,0 mm 0,0 km/h (0 Bft) E-SE 112 0 min 0 W/m 10,1 C 10,9 C 0,0 km/h (0 Bft)
24/10/2012 00:40 11,5 C 95 % 1020,3 hPa 0,0 mm 0,0 km/h (0 Bft) E-SE 112 0 min 0 W/m 10,7 C 11,5 C 0,0 km/h (0 Bft)
24/10/2012 00:50 12,3 C 95 % 1020,4 hPa 0,0 mm 0,0 km/h (0 Bft) E-SE 112 0 min 0 W/m 11,5 C 12,3 C 0,0 km/h (0 Bft)
24/10/2012 01:00 12,8 C 95 % 1020,5 hPa 0,0 mm 0,0 km/h (0 Bft) E-SE 112 0 min 0 W/m 12,0 C 12,8 C 0,0 km/h (0 Bft)
24/10/2012 01:10 13,6 C 95 % 1020,5 hPa 0,0 mm 0,0 km/h (0 Bft) E-SE 112 0 min 0 W/m 12,8 C 13,6 C 0,0 km/h (0 Bft)
24/10/2012 01:20 14,1 C 94 % 1020,5 hPa 0,0 mm 0,0 km/h (0 Bft) E-SE 112 0 min 0 W/m 13,1 C 14,1 C 1,8 km/h (1 Bft)
24/10/2012 01:30 14,5 C 94 % 1020,5 hPa 0,0 mm 0,0 km/h (0 Bft) NE 45 0 min 0 W/m 13,5 C 14,5 C 0,0 km/h (0 Bft)
24/10/2012 01:40 14,7 C 94 % 1020,5 hPa 0,0 mm 0,0 km/h (0 Bft) NE 45 0 min 0 W/m 13,7 C 14,7 C 0,0 km/h (0 Bft)
24/10/2012 01:50 15,4 C 93 % 1020,4 hPa 0,0 mm 0,7 km/h (0 Bft) NE 45 0 min 0 W/m 14,3 C 15,4 C 4,0 km/h (1 Bft)
24/10/2012 02:00 16,3 C 92 % 1020,5 hPa 0,0 mm 0,0 km/h (0 Bft) NE 45 0 min 0 W/m 15,0 C 16,3 C 0,0 km/h (0 Bft)
24/10/2012 02:10 17,3 C 91 % 1020,6 hPa 0,0 mm 0,0 km/h (0 Bft) NE 45 0 min 0 W/m 15,8 C 17,3 C 0,0 km/h (0 Bft)
24/10/2012 02:20 18,1 C 89 % 1020,5 hPa 0,0 mm 1,1 km/h (1 Bft) N-NE 22 0 min 0 W/m 16,3 C 18,1 C 4,0 km/h (1 Bft)
24/10/2012 02:30 18,6 C 89 % 1020,6 hPa 0,0 mm 0,0 km/h (0 Bft) N-NE 22 0 min 0 W/m 16,7 C 18,6 C 0,0 km/h (0 Bft)
24/10/2012 02:40 19,4 C 88 % 1020,7 hPa 0,0 mm 0,7 km/h (0 Bft) N-NE 22 0 min 0 W/m 17,4 C 19,4 C 0,7 km/h (0 Bft)
24/10/2012 02:50 20,1 C 86 % 1020,6 hPa 0,0 mm 2,9 km/h (1 Bft) E-NE 67 0 min 0 W/m 17,7 C 20,1 C 4,3 km/h (1 Bft)
24/10/2012 03:00 20,5 C 86 % 1020,6 hPa 0,0 mm 2,2 km/h (1 Bft) E-SE 112 0 min 0 W/m 18,1 C 20,5 C 4,0 km/h (1 Bft)
24/10/2012 03:10 20,8 C 85 % 1020,5 hPa 0,0 mm 3,2 km/h (1 Bft) E-SE 112 0 min 0 W/m 18,2 C 20,8 C 7,2 km/h (2 Bft)
24/10/2012 03:20 21,4 C 82 % 1020,6 hPa 0,0 mm 0,0 km/h (0 Bft) NE 45 0 min 0 W/m 18,2 C 21,4 C 0,0 km/h (0 Bft)
24/10/2012 03:30 22,0 C 80 % 1020,6 hPa 0,0 mm 1,1 km/h (1 Bft) E-NE 67 0 min 0 W/m 18,4 C 22,0 C 3,2 km/h (1 Bft)
24/10/2012 03:40 22,6 C 77 % 1020,6 hPa 0,0 mm 4,3 km/h (1 Bft) N 360 0 min 0 W/m 18,4 C 22,6 C 6,5 km/h (2 Bft)
24/10/2012 03:50 23,1 C 75 % 1020,5 hPa 0,0 mm 5,8 km/h (2 Bft) N 360 0 min 0 W/m 18,4 C 23,1 C 8,3 km/h (2 Bft)
24/10/2012 04:00 23,2 C 74 % 1020,5 hPa 0,0 mm 3,6 km/h (1 Bft) E-NE 67 0 min 0 W/m 18,3 C 23,2 C 7,6 km/h (2 Bft)
24/10/2012 04:10 23,3 C 74 % 1020,5 hPa 0,0 mm 0,7 km/h (0 Bft) NE 45 0 min 0 W/m 18,4 C 23,3 C 6,1 km/h (2 Bft)
24/10/2012 04:20 23,4 C 71 % 1020,6 hPa 0,0 mm 2,9 km/h (1 Bft) NO 315 0 min 0 W/m 17,8 C 23,4 C 4,0 km/h (1 Bft)
24/10/2012 04:30 23,4 C 72 % 1020,5 hPa 0,0 mm 1,1 km/h (1 Bft) NE 45 0 min 0 W/m 18,1 C 23,4 C 2,9 km/h (1 Bft)
24/10/2012 04:40 23,5 C 71 % 1020,3 hPa 0,0 mm 6,1 km/h (2 Bft) N-NE 22 0 min 0 W/m 17,9 C 23,5 C 10,1 km/h (2 Bft)
24/10/2012 04:50 23,4 C 71 % 1020,2 hPa 0,0 mm 2,5 km/h (1 Bft) NE 45 0 min 0 W/m 17,8 C 23,4 C 3,6 km/h (1 Bft)
24/10/2012 05:00 22,9 C 72 % 1020,0 hPa 0,0 mm 0,0 km/h (0 Bft) E-NE 67 0 min 0 W/m 17,6 C 22,9 C 0,0 km/h (0 Bft)
24/10/2012 05:10 22,6 C 72 % 1019,7 hPa 0,0 mm 2,2 km/h (1 Bft) N-NE 22 0 min 0 W/m 17,3 C 22,6 C 2,2 km/h (1 Bft)
24/10/2012 05:20 22,8 C 73 % 1019,8 hPa 0,0 mm 0,0 km/h (0 Bft) NE 45 0 min 0 W/m 17,7 C 22,8 C 0,0 km/h (0 Bft)
24/10/2012 05:30 23,2 C 72 % 1019,9 hPa 0,0 mm 3,2 km/h (1 Bft) N-NO 337 0 min 0 W/m 17,9 C 23,2 C 4,0 km/h (1 Bft)
24/10/2012 05:40 23,3 C 71 % 1019,9 hPa 0,0 mm 5,4 km/h (2 Bft) N 360 0 min 0 W/m 17,7 C 23,3 C 8,3 km/h (2 Bft)
24/10/2012 05:50 23,1 C 71 % 1019,7 hPa 0,0 mm 4,0 km/h (1 Bft) NE 45 0 min 0 W/m 17,5 C 23,1 C 4,0 km/h (1 Bft)
24/10/2012 06:00 23,2 C 70 % 1019,5 hPa 0,0 mm 3,6 km/h (1 Bft) N-NE 22 0 min 0 W/m 17,4 C 23,2 C 8,6 km/h (2 Bft)
24/10/2012 06:10 23,3 C 70 % 1019,3 hPa 0,0 mm 5,4 km/h (2 Bft) N 360 0 min 0 W/m 17,5 C 23,3 C 14,0 km/h (3 Bft)
24/10/2012 06:20 23,1 C 70 % 1019,0 hPa 0,0 mm 0,0 km/h (0 Bft) N-NE 22 0 min 0 W/m 17,3 C 23,1 C 0,0 km/h (0 Bft)
24/10/2012 06:30 22,9 C 70 % 1019,0 hPa 0,0 mm 5,0 km/h (1 Bft) E-NE 67 0 min 0 W/m 17,1 C 22,9 C 11,2 km/h (2 Bft)
24/10/2012 06:40 22,8 C 70 % 1018,9 hPa 0,0 mm 3,2 km/h (1 Bft) N-NE 22 0 min 0 W/m 17,0 C 22,8 C 4,3 km/h (1 Bft)
24/10/2012 06:50 22,8 C 69 % 1018,9 hPa 0,0 mm 2,5 km/h (1 Bft) N 360 0 min 0 W/m 16,8 C 22,8 C 8,6 km/h (2 Bft)
24/10/2012 07:00 22,6 C 70 % 1018,8 hPa 0,0 mm 0,7 km/h (0 Bft) N-NE 22 0 min 0 W/m 16,8 C 22,6 C 4,0 km/h (1 Bft)
24/10/2012 07:10 22,6 C 70 % 1018,7 hPa 0,0 mm 2,9 km/h (1 Bft) NE 45 0 min 0 W/m 16,8 C 22,6 C 4,0 km/h (1 Bft)
24/10/2012 07:20 22,4 C 69 % 1018,6 hPa 0,0 mm 2,9 km/h (1 Bft) N-NE 22 0 min 0 W/m 16,4 C 22,4 C 3,2 km/h (1 Bft)
24/10/2012 07:30 22,3 C 70 % 1018,3 hPa 0,0 mm 4,0 km/h (1 Bft) N-NE 22 0 min 0 W/m 16,6 C 22,3 C 8,6 km/h (2 Bft)
24/10/2012 07:40 22,1 C 69 % 1018,3 hPa 0,0 mm 2,5 km/h (1 Bft) N-NE 22 0 min 0 W/m 16,1 C 22,1 C 4,0 km/h (1 Bft)
24/10/2012 07:50 21,8 C 71 % 1018,2 hPa 0,0 mm 3,6 km/h (1 Bft) N-NE 22 0 min 0 W/m 16,3 C 21,8 C 8,6 km/h (2 Bft)
24/10/2012 08:00 21,6 C 71 % 1018,2 hPa 0,0 mm 6,1 km/h (2 Bft) N 360 0 min 0 W/m 16,1 C 21,6 C 11,2 km/h (2 Bft)
24/10/2012 08:10 21,4 C 72 % 1018,2 hPa 0,0 mm 2,9 km/h (1 Bft) N-NE 22 0 min 0 W/m 16,1 C 21,4 C 6,1 km/h (2 Bft)
24/10/2012 08:20 21,3 C 72 % 1018,1 hPa 0,0 mm 0,0 km/h (0 Bft) N 360 0 min 0 W/m 16,0 C 21,3 C 4,0 km/h (1 Bft)
24/10/2012 08:30 21,1 C 73 % 1018,0 hPa 0,0 mm 2,9 km/h (1 Bft) NO 315 0 min 0 W/m 16,1 C 21,1 C 7,9 km/h (2 Bft)
24/10/2012 08:40 20,8 C 74 % 1018,0 hPa 0,0 mm 6,8 km/h (2 Bft) N-NO 337 0 min 0 W/m 16,0 C 20,8 C 10,4 km/h (2 Bft)
24/10/2012 08:50 20,6 C 74 % 1018,0 hPa 0,0 mm 4,3 km/h (1 Bft) N 360 0 min 0 W/m 15,8 C 20,6 C 10,1 km/h (2 Bft)
24/10/2012 09:00 20,3 C 75 % 1018,1 hPa 0,0 mm 2,9 km/h (1 Bft) N 360 0 min 0 W/m 15,7 C 20,3 C 8,6 km/h (2 Bft)
24/10/2012 09:10 20,0 C 75 % 1018,1 hPa 0,0 mm 2,9 km/h (1 Bft) N 360 0 min 0 W/m 15,4 C 20,0 C 4,3 km/h (1 Bft)
24/10/2012 09:20 19,8 C 76 % 1018,1 hPa 0,0 mm 0,0 km/h (0 Bft) N-NE 22 0 min 0 W/m 15,4 C 19,8 C 0,0 km/h (0 Bft)
24/10/2012 09:30 19,4 C 77 % 1018,1 hPa 0,0 mm 0,7 km/h (0 Bft) N 360 0 min 0 W/m 15,3 C 19,4 C 3,2 km/h (1 Bft)
24/10/2012 09:40 18,8 C 78 % 1018,0 hPa 0,0 mm 0,0 km/h (0 Bft) N 360 0 min 0 W/m 14,9 C 18,8 C 0,0 km/h (0 Bft)
24/10/2012 09:50 18,4 C 79 % 1018,0 hPa 0,0 mm 0,0 km/h (0 Bft) NE 45 0 min 0 W/m 14,7 C 18,4 C 1,4 km/h (1 Bft)
24/10/2012 10:00 17,8 C 80 % 1018,1 hPa 0,0 mm 2,9 km/h (1 Bft) N 360 0 min 0 W/m 14,3 C 17,8 C 4,3 km/h (1 Bft)
24/10/2012 10:10 17,4 C 81 % 1018,1 hPa 0,0 mm 1,4 km/h (1 Bft) N 360 0 min 0 W/m 14,1 C 17,4 C 1,4 km/h (1 Bft)
24/10/2012 10:20 17,1 C 82 % 1018,2 hPa 0,0 mm 1,4 km/h (1 Bft) N-NE 22 0 min 0 W/m 14,0 C 17,1 C 4,0 km/h (1 Bft)
24/10/2012 10:30 16,8 C 83 % 1018,3 hPa 0,0 mm 0,0 km/h (0 Bft) N-NE 22 0 min 0 W/m 13,9 C 16,8 C 0,0 km/h (0 Bft)
24/10/2012 10:40 16,4 C 83 % 1018,4 hPa 0,0 mm 0,4 km/h (0 Bft) N-NE 22 0 min 0 W/m 13,5 C 16,4 C 4,0 km/h (1 Bft)
24/10/2012 10:50 16,3 C 84 % 1018,5 hPa 0,0 mm 0,0 km/h (0 Bft) N-NE 22 0 min 0 W/m 13,6 C 16,3 C 0,0 km/h (0 Bft)
24/10/2012 11:00 16,1 C 84 % 1018,6 hPa 0,0 mm 0,0 km/h (0 Bft) N-NE 22 0 min 0 W/m 13,4 C 16,1 C 0,0 km/h (0 Bft)
24/10/2012 11:10 16,1 C 85 % 1018,5 hPa 0,0 mm 0,4 km/h (0 Bft) N-NE 22 0 min 0 W/m 13,6 C 16,1 C 3,6 km/h (1 Bft)
24/10/2012 11:20 16,1 C 85 % 1018,6 hPa 0,0 mm 0,0 km/h (0 Bft) N-NE 22 0 min 0 W/m 13,6 C 16,1 C 3,6 km/h (1 Bft)
24/10/2012 11:30 16,0 C 86 % 1018,5 hPa 0,0 mm 0,4 km/h (0 Bft) N-NE 22 0 min 0 W/m 13,7 C 16,0 C 3,6 km/h (1 Bft)
24/10/2012 11:40 15,9 C 86 % 1018,5 hPa 0,0 mm 0,0 km/h (0 Bft) N-NE 22 0 min 0 W/m 13,6 C 15,9 C 0,0 km/h (0 Bft)
24/10/2012 11:50 15,8 C 86 % 1018,4 hPa 0,0 mm 0,0 km/h (0 Bft) N-NE 22 0 min 0 W/m 13,5 C 15,8 C 0,0 km/h (0 Bft)
24/10/2012 12:00 15,5 C 86 % 1018,4 hPa 0,0 mm 0,7 km/h (0 Bft) N-NE 22 0 min 0 W/m 13,2 C 15,5 C 3,2 km/h (1 Bft)
24/10/2012 12:10 15,4 C 87 % 1018,3 hPa 0,0 mm 0,0 km/h (0 Bft) N-NE 22 0 min 0 W/m 13,2 C 15,4 C 0,0 km/h (0 Bft)
24/10/2012 12:20 15,2 C 87 % 1018,4 hPa 0,0 mm 0,0 km/h (0 Bft) N-NE 22 0 min 0 W/m 13,0 C 15,2 C 0,0 km/h (0 Bft)
24/10/2012 12:30 15,1 C 87 % 1018,4 hPa 0,0 mm 0,0 km/h (0 Bft) N-NE 22 0 min 0 W/m 13,0 C 15,1 C 0,0 km/h (0 Bft)
24/10/2012 12:40 14,9 C 87 % 1018,3 hPa 0,0 mm 0,0 km/h (0 Bft) N-NE 22 0 min 0 W/m 12,8 C 14,9 C 0,0 km/h (0 Bft)
24/10/2012 12:50 14,7 C 87 % 1018,3 hPa 0,0 mm 0,0 km/h (0 Bft) N-NE 22 0 min 0 W/m 12,6 C 14,7 C 0,0 km/h (0 Bft)
24/10/2012 13:00 14,6 C 88 % 1018,2 hPa 0,0 mm 0,0 km/h (0 Bft) N-NE 22 0 min 0 W/m 12,6 C 14,6 C 0,0 km/h (0 Bft)
24/10/2012 13:10 14,5 C 88 % 1018,3 hPa 0,0 mm 0,4 km/h (0 Bft) N-NE 22 0 min 0 W/m 12,5 C 14,5 C 4,0 km/h (1 Bft)
24/10/2012 13:20 14,4 C 88 % 1018,3 hPa 0,0 mm 0,0 km/h (0 Bft) N-NE 22 0 min 0 W/m 12,4 C 14,4 C 4,0 km/h (1 Bft)
24/10/2012 13:30 14,4 C 89 % 1018,4 hPa 0,0 mm 4,7 km/h (1 Bft) N 360 0 min 0 W/m 12,6 C 14,4 C 10,4 km/h (2 Bft)
24/10/2012 13:40 14,5 C 90 % 1018,4 hPa 0,0 mm 0,4 km/h (0 Bft) N-NE 22 0 min 0 W/m 12,9 C 14,5 C 3,2 km/h (1 Bft)
24/10/2012 13:50 14,6 C 90 % 1018,3 hPa 0,0 mm 0,0 km/h (0 Bft) N 360 0 min 0 W/m 13,0 C 14,6 C 3,2 km/h (1 Bft)
24/10/2012 14:00 14,8 C 90 % 1018,2 hPa 0,0 mm 2,2 km/h (1 Bft) N-NE 22 0 min 0 W/m 13,2 C 14,8 C 6,5 km/h (2 Bft)
24/10/2012 14:10 14,9 C 91 % 1018,2 hPa 0,0 mm 2,2 km/h (1 Bft) N-NE 22 0 min 0 W/m 13,4 C 14,9 C 8,3 km/h (2 Bft)
24/10/2012 14:20 15,0 C 91 % 1018,3 hPa 0,0 mm 4,7 km/h (1 Bft) E-NE 67 0 min 0 W/m 13,5 C 15,0 C 7,6 km/h (2 Bft)
24/10/2012 14:30 15,1 C 91 % 1018,2 hPa 0,0 mm 1,8 km/h (1 Bft) NE 45 0 min 0 W/m 13,6 C 15,1 C 6,8 km/h (2 Bft)
24/10/2012 14:40 15,0 C 91 % 1018,1 hPa 0,0 mm 3,2 km/h (1 Bft) N-NE 22 0 min 0 W/m 13,5 C 15,0 C 7,2 km/h (2 Bft)
24/10/2012 14:50 15,0 C 91 % 1018,1 hPa 0,0 mm 0,7 km/h (0 Bft) N-NE 22 0 min 0 W/m 13,5 C 15,0 C 3,2 km/h (1 Bft)
24/10/2012 15:00 15,0 C 91 % 1018,0 hPa 0,0 mm 1,8 km/h (1 Bft) N-NE 22 0 min 0 W/m 13,5 C 15,0 C 6,8 km/h (2 Bft)
24/10/2012 15:10 14,9 C 91 % 1018,0 hPa 0,0 mm 0,0 km/h (0 Bft) NE 45 0 min 0 W/m 13,4 C 14,9 C 0,0 km/h (0 Bft)
24/10/2012 15:20 14,9 C 91 % 1017,8 hPa 0,0 mm 0,0 km/h (0 Bft) N-NE 22 0 min 0 W/m 13,4 C 14,9 C 0,0 km/h (0 Bft)
24/10/2012 15:30 14,9 C 91 % 1017,8 hPa 0,0 mm 0,0 km/h (0 Bft) E-NE 67 0 min 0 W/m 13,4 C 14,9 C 0,0 km/h (0 Bft)
24/10/2012 15:40 14,8 C 91 % 1017,7 hPa 0,0 mm 5,4 km/h (2 Bft) N-NE 22 0 min 0 W/m 13,3 C 14,8 C 9,0 km/h (2 Bft)
24/10/2012 15:50 14,8 C 91 % 1017,5 hPa 0,0 mm 0,4 km/h (0 Bft) NE 45 0 min 0 W/m 13,3 C 14,8 C 3,6 km/h (1 Bft)
24/10/2012 16:00 14,8 C 91 % 1017,6 hPa 0,0 mm 3,6 km/h (1 Bft) N-NE 22 0 min 0 W/m 13,3 C 14,8 C 6,1 km/h (2 Bft)
24/10/2012 16:10 14,7 C 91 % 1017,5 hPa 0,0 mm 1,4 km/h (1 Bft) N 360 0 min 0 W/m 13,2 C 14,7 C 4,0 km/h (1 Bft)
24/10/2012 16:20 14,6 C 91 % 1017,4 hPa 0,0 mm 1,1 km/h (1 Bft) N-NE 22 0 min 0 W/m 13,1 C 14,6 C 4,0 km/h (1 Bft)
24/10/2012 16:30 14,6 C 91 % 1017,4 hPa 0,0 mm 0,0 km/h (0 Bft) N-NE 22 0 min 0 W/m 13,1 C 14,6 C 0,0 km/h (0 Bft)
24/10/2012 16:40 14,6 C 91 % 1017,5 hPa 0,0 mm 1,1 km/h (1 Bft) N-NE 22 0 min 0 W/m 13,1 C 14,6 C 1,1 km/h (1 Bft)
24/10/2012 16:50 14,6 C 91 % 1017,3 hPa 0,0 mm 1,1 km/h (1 Bft) NE 45 0 min 0 W/m 13,1 C 14,6 C 1,1 km/h (1 Bft)
24/10/2012 17:00 14,5 C 91 % 1017,2 hPa 0,0 mm 0,0 km/h (0 Bft) NE 45 0 min 0 W/m 13,0 C 14,5 C 0,0 km/h (0 Bft)
24/10/2012 17:10 14,5 C 91 % 1017,1 hPa 0,0 mm 0,7 km/h (0 Bft) N-NE 22 0 min 0 W/m 13,0 C 14,5 C 0,7 km/h (0 Bft)
24/10/2012 17:20 14,5 C 91 % 1017,1 hPa 0,0 mm 0,0 km/h (0 Bft) NE 45 0 min 0 W/m 13,0 C 14,5 C 0,0 km/h (0 Bft)
24/10/2012 17:30 14,5 C 91 % 1017,2 hPa 0,0 mm 0,7 km/h (0 Bft) NE 45 0 min 0 W/m 13,0 C 14,5 C 3,2 km/h (1 Bft)
24/10/2012 17:40 14,4 C 91 % 1017,1 hPa 0,0 mm 0,0 km/h (0 Bft) NE 45 0 min 0 W/m 12,9 C 14,4 C 0,0 km/h (0 Bft)
24/10/2012 17:50 14,4 C 91 % 1017,0 hPa 0,0 mm 0,4 km/h (0 Bft) NE 45 0 min 0 W/m 12,9 C 14,4 C 4,0 km/h (1 Bft)
24/10/2012 18:00 14,4 C 91 % 1016,9 hPa 0,0 mm 0,0 km/h (0 Bft) NE 45 0 min 0 W/m 12,9 C 14,4 C 0,0 km/h (0 Bft)
24/10/2012 18:10 14,4 C 91 % 1016,8 hPa 0,0 mm 0,0 km/h (0 Bft) NE 45 0 min 0 W/m 12,9 C 14,4 C 0,0 km/h (0 Bft)
24/10/2012 18:20 14,4 C 91 % 1016,7 hPa 0,0 mm 0,0 km/h (0 Bft) NE 45 0 min 0 W/m 12,9 C 14,4 C 0,0 km/h (0 Bft)
24/10/2012 18:30 14,3 C 91 % 1016,6 hPa 0,0 mm 0,0 km/h (0 Bft) NE 45 0 min 0 W/m 12,8 C 14,3 C 3,6 km/h (1 Bft)
24/10/2012 18:40 14,3 C 91 % 1016,6 hPa 0,0 mm 0,0 km/h (0 Bft) N-NE 22 0 min 0 W/m 12,8 C 14,3 C 0,0 km/h (0 Bft)
24/10/2012 18:50 14,3 C 91 % 1016,5 hPa 0,0 mm 0,0 km/h (0 Bft) N-NE 22 0 min 0 W/m 12,8 C 14,3 C 0,0 km/h (0 Bft)
24/10/2012 19:00 14,2 C 91 % 1016,2 hPa 0,0 mm 0,0 km/h (0 Bft) NE 45 0 min 0 W/m 12,8 C 14,2 C 0,0 km/h (0 Bft)
24/10/2012 19:10 14,1 C 91 % 1016,1 hPa 0,0 mm 0,0 km/h (0 Bft) N-NE 22 0 min 0 W/m 12,7 C 14,1 C 0,0 km/h (0 Bft)
24/10/2012 19:20 14,1 C 91 % 1016,0 hPa 0,0 mm 0,0 km/h (0 Bft) N-NE 22 0 min 0 W/m 12,7 C 14,1 C 0,0 km/h (0 Bft)
24/10/2012 19:30 14,0 C 91 % 1015,8 hPa 0,0 mm 0,4 km/h (0 Bft) N-NE 22 0 min 0 W/m 12,6 C 14,0 C 2,9 km/h (1 Bft)
24/10/2012 19:40 14,0 C 91 % 1015,7 hPa 0,0 mm 0,0 km/h (0 Bft) N-NE 22 0 min 0 W/m 12,6 C 14,0 C 0,0 km/h (0 Bft)
24/10/2012 19:50 13,9 C 91 % 1015,7 hPa 0,0 mm 1,1 km/h (1 Bft) N-NE 22 0 min 0 W/m 12,5 C 13,9 C 3,6 km/h (1 Bft)
24/10/2012 20:00 13,9 C 91 % 1015,6 hPa 0,0 mm 0,0 km/h (0 Bft) N-NE 22 0 min 0 W/m 12,5 C 13,9 C 0,0 km/h (0 Bft)
24/10/2012 20:10 13,9 C 92 % 1015,5 hPa 0,0 mm 0,0 km/h (0 Bft) N-NE 22 0 min 0 W/m 12,6 C 13,9 C 2,9 km/h (1 Bft)
24/10/2012 20:20 13,9 C 92 % 1015,4 hPa 0,0 mm 0,0 km/h (0 Bft) N-NE 22 0 min 0 W/m 12,6 C 13,9 C 0,0 km/h (0 Bft)
24/10/2012 20:30 13,8 C 92 % 1015,1 hPa 0,0 mm 0,0 km/h (0 Bft) N-NE 22 0 min 0 W/m 12,5 C 13,8 C 0,0 km/h (0 Bft)
24/10/2012 20:40 13,8 C 92 % 1015,1 hPa 0,0 mm 0,0 km/h (0 Bft) N-NE 22 0 min 0 W/m 12,5 C 13,8 C 0,0 km/h (0 Bft)
24/10/2012 20:50 13,8 C 92 % 1015,0 hPa 0,0 mm 0,0 km/h (0 Bft) N-NE 22 0 min 0 W/m 12,5 C 13,8 C 0,0 km/h (0 Bft)
24/10/2012 21:00 13,8 C 92 % 1014,9 hPa 0,0 mm 0,0 km/h (0 Bft) N-NE 22 0 min 0 W/m 12,5 C 13,8 C 0,0 km/h (0 Bft)
24/10/2012 21:10 13,7 C 92 % 1014,9 hPa 0,0 mm 0,0 km/h (0 Bft) N-NE 22 0 min 0 W/m 12,4 C 13,7 C 0,0 km/h (0 Bft)
24/10/2012 21:20 13,7 C 92 % 1014,9 hPa 0,0 mm 0,4 km/h (0 Bft) N-NE 22 0 min 0 W/m 12,4 C 13,7 C 3,6 km/h (1 Bft)
24/10/2012 21:30 13,6 C 92 % 1014,8 hPa 0,0 mm 0,0 km/h (0 Bft) N-NE 22 0 min 0 W/m 12,3 C 13,6 C 0,0 km/h (0 Bft)
24/10/2012 21:40 13,6 C 92 % 1014,8 hPa 0,0 mm 0,0 km/h (0 Bft) N-NE 22 0 min 0 W/m 12,3 C 13,6 C 0,0 km/h (0 Bft)
24/10/2012 21:50 13,6 C 92 % 1014,7 hPa 0,0 mm 0,0 km/h (0 Bft) N-NE 22 0 min 0 W/m 12,3 C 13,6 C 0,0 km/h (0 Bft)
24/10/2012 22:00 13,6 C 92 % 1014,7 hPa 0,0 mm 0,0 km/h (0 Bft) N-NE 22 0 min 0 W/m 12,3 C 13,6 C 0,0 km/h (0 Bft)
24/10/2012 22:10 13,6 C 92 % 1014,6 hPa 0,0 mm 0,0 km/h (0 Bft) N-NE 22 0 min 0 W/m 12,3 C 13,6 C 0,0 km/h (0 Bft)
24/10/2012 22:20 13,6 C 92 % 1014,6 hPa 0,0 mm 0,0 km/h (0 Bft) N-NE 22 0 min 0 W/m 12,3 C 13,6 C 0,0 km/h (0 Bft)
24/10/2012 22:30 13,6 C 92 % 1014,5 hPa 0,0 mm 0,0 km/h (0 Bft) N-NE 22 0 min 0 W/m 12,3 C 13,6 C 0,0 km/h (0 Bft)
24/10/2012 22:40 13,6 C 92 % 1014,4 hPa 0,0 mm 0,0 km/h (0 Bft) N-NE 22 0 min 0 W/m 12,3 C 13,6 C 0,0 km/h (0 Bft)
24/10/2012 22:50 13,6 C 92 % 1014,4 hPa 0,0 mm 0,0 km/h (0 Bft) N-NE 22 0 min 0 W/m 12,3 C 13,6 C 0,0 km/h (0 Bft)
24/10/2012 23:00 13,5 C 92 % 1014,4 hPa 0,0 mm 0,0 km/h (0 Bft) N-NE 22 0 min 0 W/m 12,2 C 13,5 C 0,0 km/h (0 Bft)
24/10/2012 23:10 13,5 C 92 % 1014,4 hPa 0,0 mm 0,0 km/h (0 Bft) N-NE 22 0 min 0 W/m 12,2 C 13,5 C 0,0 km/h (0 Bft)
24/10/2012 23:20 13,5 C 93 % 1014,4 hPa 0,0 mm 0,0 km/h (0 Bft) N-NE 22 0 min 0 W/m 12,4 C 13,5 C 0,0 km/h (0 Bft)
24/10/2012 23:30 13,6 C 93 % 1014,5 hPa 0,0 mm 0,0 km/h (0 Bft) N-NE 22 0 min 0 W/m 12,5 C 13,6 C 0,0 km/h (0 Bft)
24/10/2012 23:40 13,5 C 93 % 1014,6 hPa 0,0 mm 0,0 km/h (0 Bft) N-NE 22 0 min 0 W/m 12,4 C 13,5 C 0,0 km/h (0 Bft)
24/10/2012 23:50 13,6 C 93 % 1014,5 hPa 0,0 mm 0,0 km/h (0 Bft) E-SE 112 0 min 0 W/m 12,5 C 13,6 C 0,0 km/h (0 Bft)
_ Min-Heure 00:10 07:40 23:20 - 23:50 - - - - 00:10 00:10 23:50
Minimum _ 10,1 C 69 % 1014,4 hPa - 0,0 km/h (0 Bft) - - - - 9,2 C 10,1 C 0,0 km/h (0 Bft)
_ Max-Heure 04:40 01:10 02:40 23:50 08:40 - - 23:50 23:50 03:50 04:40 06:10
Maximum _ 23,5 C 95 % 1020,7 hPa 0,0 mm 6,8 km/h
N-NO (2 Bft)
- - 0 min 0 W/m 18,4 C 23,5 C 14,0 km/h
N (3 Bft)
Moyenne _ 16,8 C 85 % 1018,0 hPa #0,0 mm 1,2 km/h (1 Bft) N-NE - #0 min. 0 W/m 14,2 C 16,8 C 2,8 km/h (1 Bft)
Saint Bonnet de Bellac- Haute Vienne - France